Location: Austin
(30.3000°N, 97.7500°W)
Time: 06:17:48
(UTC-06:00)

IGS 5A - Pass Details

Date: 05 February 2026
Orbit: 551 x 554 km, 97.4° (Epoch: 8 January)

Event Time Altitude Azimuth Distance (km) Brightness Sun altitude
Rises 06:45:43 0° 357° (N) 2,729 6.7 -7.8°
Reaches altitude 10° 06:48:02 10° 347° (NNW) 1,832 5.7 -7.3°
Maximum altitude 06:51:28 29° 286° (WNW) 1,032 4.2 -6.6°
Drops below altitude 10° 06:54:54 10° 226° (SW) 1,823 5.7 -5.8°
Sets 06:57:12 0° 215° (SW) 2,713 6.7 -5.4°
